Regional Weather Roundup
Issued by NWS Upton, NY

Current Version | Previous Version | Graphics & Text | Print | Product List | Glossary On
Versions: 1 2 3 4 5 6 7 8 9 10 11 12 13 14 15 16 17 18 19 20 21 22 23 24 25 26 27 28 29 30 31 32 33 34 35 36 37 38 39 40 41 42 43 44 45 46 47 48 49 50
678
ASUS41 KOKX 311105
RWROKX

REGIONAL WEATHER ROUNDUP
NATIONAL WEATHER SERVICE NEW YORK NY
700 AM EDT TUE MAY 31 2016

NOTE: "FAIR" INDICATES FEW OR NO CLOUDS BELOW 12,000 FEET WITH NO
SIGNIFICANT WEATHER AND/OR OBSTRUCTIONS TO VISIBILITY.

NYZ071-072-176-178-NJZ106-104-311200-
NEW YORK CITY METRO AREA


CITY           SKY/WX    TMP DP  RH WIND       PRES   REMARKS
CENTRAL PARK   CLOUDY    72  67  84 CALM      29.97R
LAGUARDIA APRT CLOUDY    73  68  83 NW7       29.94R
KENNEDY INTL   FOG       66  64  93 S5        29.95S VSB 3/4
NEWARK/LIBERTY CLOUDY    72  68  87 SW7       29.94R
BRNX BOT. GARD   N/A     72  66  83 NW2       29.97R
TETERBORO      CLOUDY    72  66  81 CALM      29.93R
$$

NYZ177-179-078>081-311200-
LONG ISLAND NEW YORK

CITY           SKY/WX    TMP DP  RH WIND       PRES   REMARKS
FARMINGDALE    CLOUDY    68  66  93 W3        29.96R
ISLIP          NOT AVBL
SHIRLEY        CLOUDY    67  67 100 CALM      29.97R FOG
RIVERHEAD        N/A     68  66  94 CALM      29.95R
WESTHAMPTON    FOG       63  63 100 SW3       29.98R VSB 1/4
EAST HAMPTON   CLOUDY    62  62  99 S3        29.95R FOG
MONTAUK POINT    N/A     61  61 100 S5        29.97R
$$

NYZ052-065-067-311200-
HUDSON VALLEY

CITY           SKY/WX    TMP DP  RH WIND       PRES   REMARKS
WHITE PLAINS   CLOUDY    70  68  93 NW3       29.96R
NEWBURGH       MOSUNNY   64  64 100 CALM      29.97R
MONTGOMERY     CLOUDY    66  63  90 CALM      29.96R
POUGHKEEPSIE   CLOUDY    68  63  84 CALM      29.95R
ALBANY         MOSUNNY   65  55  70 W7        29.96R
$$

NJZ001-105-106-008-010-013-015-019>022-104-311200-
NEW JERSEY

CITY           SKY/WX    TMP DP  RH WIND       PRES   REMARKS
NEWARK/LIBERTY CLOUDY    72  68  87 SW7       29.94R
TETERBORO      CLOUDY    72  66  81 CALM      29.93R
CALDWELL       MOSUNNY   70  67  90 CALM      29.95R
MORRISTOWN     PTSUNNY   66  64  94 CALM      29.95R FOG
SOMERVILLE     CLOUDY    67  66  97 CALM      29.93S
SUSSEX         CLOUDY    64  62  93 CALM      29.97R
ANDOVER          N/A     66  63  90 N3        29.97R
TRENTON        MOSUNNY   70  67  90 CALM      29.95R
MILLVILLE      FOG       67  66  97 S3        29.97R VSB 1/2
ATLANTIC CITY  CLOUDY    68  67  96 S3        29.97R FOG
WRIGHTSTOWN    CLOUDY    68  68 100 SW6       29.93S
TOMS RIVER     CLOUDY    68  64  88 S6        29.96S
BELMAR         CLOUDY    69  68  96 CALM      29.97R
$$

PAZ047>061-062-071-311200-
EASTERN PENNSYLVANIA

CITY           SKY/WX    TMP DP  RH WIND       PRES   REMARKS
PHILADELPHIA   PTSUNNY   70  67  90 W6        29.96R
ALLENTOWN      CLOUDY    66  63  90 SW3       29.97R
SCRANTON       CLOUDY    61  60  97 SE3       30.01R FOG
$$

CTZ002-004>006-009-010-012-RIZ004-006-007-MAZ004-011-015-311200-
SOUTHERN NEW ENGLAND
 IN CT

CITY           SKY/WX    TMP DP  RH WIND       PRES   REMARKS
BRADLEY INTL   CLOUDY    70  62  76 NW6       29.94R
HARTFORD       CLOUDY    72  68  87 CALM      29.94R
DANBURY        CLOUDY    68  64  87 CALM      29.97R
WTRBRY/OXFORD  PTSUNNY   66  63  88 CALM      29.98R
BRIDGEPORT     CLOUDY    69  66  90 SW3       29.95R
MERIDEN        CLOUDY    69  66  90 CALM      29.95R
NEW HAVEN      CLOUDY    68  66  93 SW3       29.95R
CHESTER        FOG       68  68 100 CALM      29.96R VSB<1/4
GROTON         FOG       65  65 100 VRB3      29.95R VSB 1/4
WILLIMANTIC    CLOUDY    71  66  84 SW3       29.94R

 IN RI

CITY           SKY/WX    TMP DP  RH WIND       PRES   REMARKS
PROVIDENCE     NOT AVBL
BLOCK ISLAND   FOG       62  61  96 SW12      29.96S VSB 1/4
WESTERLY       FOG       63  61  93 S5        29.96R VSB<1/4

 IN MA

CITY           SKY/WX    TMP DP  RH WIND       PRES   REMARKS
BOSTON         CLOUDY    72  66  81 W9G18     29.90R
WORCESTER      MOSUNNY   66  63  90 W9        29.95R
WESTFIELD      SUNNY     67  63  87 CALM      29.94R
PROVINCETOWN   PTSUNNY   62  62 100 SW12      29.93R
NANTUCKET      LGT RAIN  64  62  93 SW8       29.96S VSB 1/4
$$

ANZ330-335-338-340-345-350-353-355-311200-
COASTAL MARINE OBSERVATIONS


STATION/POSITION TIME  SKY/WX   TEMP    WIND        PRES    VSBY  WAVE
                                AIR SEA DIR/SP/G                  HT/PER
                 (UTC)          (F)     (DEG/KT/KT) (MB)    (MI)  (FT/S)
NY HARB ENTRANCE 0950            60 57  200/  8/ 10 1013.6          4/ 7
20S FIRE ISLAND  0950            62 61  200/ 10/ 12 1014.0          4/ 7
GREAT SOUTH BAY  1015            65 70  250/  8/  8   N/A
23 SSW MONTAUK P 1050            61 58  230/ 12/ 14 1014.1          4/ 7
15 E BARNEGAT LI 1022               61                N/A           4/ 8
HUDSON CANYON    0950            62 59              1015.0          4/ 7
KINGS POINT      1000            68 59              1013.3
EXECUTION ROCKS  NOT AVBL
CENTRAL LI SOUND 1000            64     200/  4/  4   N/A           1
EASTERN LI SOUND 1000            60 54  190/  2/  4   N/A
ROBBINS REEF     1018            70     190/  6/  7 1013.1
$$


>>>>>>>>>>>>>>>>>>>>>>>>>>>> KEY <<<<<<<<<<<<<<<<<<<<<<<<<<<
>                                                          <
>     SKY/WX - SKY CONDITION/PRESENT WEATHER               <
>     TMP    - TEMPERATURE IN FAHRENHEIT                   <
>     DP     - DEWPOINT IN FAHRENHEIT                      <
>     RH     - RELATIVE HUMIDITY IN PERCENT                <
>     WIND   - DIRECTION AND SPEED IN MPH                  <
>     PRES   - MEAN SEA LEVEL PRESSURE IN INCHES OF HG     <
>     WCI    - WIND CHILL INDEX                            <
>     VSB    - VISIBILITY IN MILES                         <
>     HX     - HEAT INDEX                                  <
>     TC     - TEMPERATURE IN CELSIUS                      <
>     VRB    - VARIABLE WIND DIRECTION                     <
>                                                          <
>>>>>>>>>>>>>>>>>>>>>>>>>>>> KEY <<<<<<<<<<<<<<<<<<<<<<<<<<<






USA.gov is the U.S. government's official web portal to all federal, state and local government web resources and services.